2022/12/30 00:00:00,22.7,-1.2
2022/12/30 00:10:00,22.7,-1.3
2022/12/30 00:20:00,22.7,-1.4
2022/12/30 00:30:00,22.7,-1.2
2022/12/30 00:40:00,22.7,-1.5
2022/12/30 00:50:00,22.7,-1.4
2022/12/30 01:00:00,22.7,-1.3
2022/12/30 01:10:00,22.7,-1.5
2022/12/30 01:20:00,22.6,-1.3
2022/12/30 01:30:00,22.7,-1.2
2022/12/30 01:40:00,22.7,-1.2
2022/12/30 01:50:00,22.6,-1.1
2022/12/30 02:00:00,22.5,-1.1
2022/12/30 02:10:00,22.5,-1.0
2022/12/30 02:20:00,22.5,-1.0
2022/12/30 02:30:00,22.4,-1.1
2022/12/30 02:40:00,22.4,-0.7
2022/12/30 02:50:00,22.5,-1.0
2022/12/30 03:00:00,22.5,-0.8
2022/12/30 03:10:00,22.5,-1.3
2022/12/30 03:20:00,22.6,-0.7
2022/12/30 03:30:00,22.6,-0.8
2022/12/30 03:40:00,22.6,-1.1
2022/12/30 03:50:00,22.6,-1.0
2022/12/30 04:00:00,22.6,-0.9
2022/12/30 04:10:00,22.6,-1.1
2022/12/30 04:20:00,22.6,-1.2
2022/12/30 04:30:00,22.5,-1.1
2022/12/30 04:40:00,22.5,-1.2
2022/12/30 04:50:00,22.5,-1.1
2022/12/30 05:00:00,22.5,-1.1
2022/12/30 05:10:00,22.6,-1.0
2022/12/30 05:20:00,22.6,-1.0
2022/12/30 05:30:00,22.6,-1.1
2022/12/30 05:40:00,22.6,-1.0
2022/12/30 05:50:00,22.6,-1.1
2022/12/30 06:00:00,22.6,-1.0
2022/12/30 06:10:00,22.6,-1.0
2022/12/30 06:20:00,22.6,-1.1
2022/12/30 06:30:00,22.5,-1.1
2022/12/30 06:40:00,22.5,-1.2
2022/12/30 06:50:00,22.5,-1.2
2022/12/30 07:00:00,22.5,-1.2
2022/12/30 07:10:00,22.5,-1.2
2022/12/30 07:20:00,22.5,-1.1
2022/12/30 07:30:00,22.5,-1.0
2022/12/30 07:40:00,22.6,-0.9
2022/12/30 07:50:00,22.6,-0.9
2022/12/30 08:00:00,22.7,-1.0
2022/12/30 08:10:00,22.7,-0.8
2022/12/30 08:20:00,22.6,-0.5
2022/12/30 08:30:00,22.6,-0.2
2022/12/30 08:40:00,22.8, 0.3
2022/12/30 08:50:00,22.9, 0.5
2022/12/30 09:00:00,22.9, 0.5
2022/12/30 09:10:00,23.0, 0.8
2022/12/30 09:20:00,23.2, 1.4
2022/12/30 09:30:00,23.3, 2.2
2022/12/30 09:40:00,23.3, 2.2
2022/12/30 09:50:00,23.3, 1.6
2022/12/30 10:00:00,23.1, 1.7
2022/12/30 10:10:00,23.4, 1.8
2022/12/30 10:20:00,23.2, 1.8
2022/12/30 10:30:00,23.2, 1.8
2022/12/30 10:40:00,23.4, 3.0
2022/12/30 10:50:00,24.1, 6.0
2022/12/30 11:00:00,23.7, 4.1
2022/12/30 11:10:00,23.6, 3.0
2022/12/30 11:20:00,23.5, 2.5
2022/12/30 11:30:00,23.3, 2.2
2022/12/30 11:40:00,23.1, 1.6
2022/12/30 11:50:00,22.9, 1.0
2022/12/30 12:00:00,22.9, 0.8
2022/12/30 12:10:00,23.0, 0.8
2022/12/30 12:20:00,23.0, 1.1
2022/12/30 12:30:00,23.1, 1.6
2022/12/30 12:40:00,22.9, 1.1
2022/12/30 12:50:00,22.7, 1.3
2022/12/30 13:00:00,22.9, 2.0
2022/12/30 13:10:00,22.8, 1.6
2022/12/30 13:20:00,23.0, 2.0
2022/12/30 13:30:00,23.0, 1.6
2022/12/30 13:40:00,22.8, 1.2
2022/12/30 13:50:00,22.7, 0.8
2022/12/30 14:00:00,22.6, 0.6
2022/12/30 14:10:00,22.6, 0.7
2022/12/30 14:20:00,22.8, 1.6
2022/12/30 14:30:00,23.0, 2.2
2022/12/30 14:40:00,23.1, 2.2
2022/12/30 14:50:00,22.9, 1.8
2022/12/30 15:00:00,22.9, 2.3
2022/12/30 15:10:00,22.9, 2.4
2022/12/30 15:20:00,22.7, 1.3
2022/12/30 15:30:00,22.6, 1.0
2022/12/30 15:40:00,22.6, 0.8
2022/12/30 15:50:00,22.6, 0.6
2022/12/30 16:00:00,22.5, 0.3
2022/12/30 16:10:00,22.4, 0.2
2022/12/30 16:20:00,22.4,-0.1
2022/12/30 16:30:00,22.3, 0.1
2022/12/30 16:40:00,22.2,-0.4
2022/12/30 16:50:00,22.3,-0.6
2022/12/30 17:00:00,22.2,-0.5
2022/12/30 17:10:00,22.2,-0.4
2022/12/30 17:20:00,22.2,-0.4
2022/12/30 17:30:00,22.2,-0.3
2022/12/30 17:40:00,22.3,-0.3
2022/12/30 17:50:00,22.3,-0.5
2022/12/30 18:00:00,22.3,-0.4
2022/12/30 18:10:00,22.3,-0.5
2022/12/30 18:20:00,22.3,-0.3
2022/12/30 18:30:00,22.3,-0.3
2022/12/30 18:40:00,22.3,-0.1
2022/12/30 18:50:00,22.3,-0.2
2022/12/30 19:00:00,22.4, 0.0
2022/12/30 19:10:00,22.4,-0.1
2022/12/30 19:20:00,22.4,-0.1
2022/12/30 19:30:00,22.3,-0.2
2022/12/30 19:40:00,22.3, 0.0
2022/12/30 19:50:00,22.3,-0.2
2022/12/30 20:00:00,22.3,-0.1
2022/12/30 20:10:00,22.3,-0.2
2022/12/30 20:20:00,22.3,-0.3
2022/12/30 20:30:00,22.3,-0.1
2022/12/30 20:40:00,22.3,-0.3
2022/12/30 20:50:00,22.2,-0.2
2022/12/30 21:00:00,22.2,-0.1
2022/12/30 21:10:00,22.3,-0.3
2022/12/30 21:20:00,22.3,-0.4
2022/12/30 21:30:00,22.3,-0.2
2022/12/30 21:40:00,22.3,-0.4
2022/12/30 21:50:00,22.3,-0.1
2022/12/30 22:00:00,22.3,-0.2
2022/12/30 22:10:00,22.3,-0.4
2022/12/30 22:20:00,22.3, 0.0
2022/12/30 22:30:00,22.2,-0.1
2022/12/30 22:40:00,22.2, 0.0
2022/12/30 22:50:00,22.2, 0.0
2022/12/30 23:00:00,22.1,-0.1
2022/12/30 23:10:00,22.0,-0.1
2022/12/30 23:20:00,22.0,-0.3
2022/12/30 23:30:00,22.0,-0.4
2022/12/30 23:40:00,22.0,-0.2
2022/12/30 23:50:00,22.0,-0.3
